Regional Weather Roundup
Issued by NWS

Home | Current Version | Previous Version | Text Only | Print | Product List | Glossary On
Versions: 1 2 3 4 5 6 7 8 9 10 11 12 13 14 15 16 17 18 19 20 21 22 23 24 25 26 27 28 29 30 31 32 33 34 35 36 37 38 39 40 41 42 43 44 45 46 47 48 49 50
000
ASUS46 KPQR 030810
RWROR

OREGON REGIONAL WEATHER ROUNDUP
NATIONAL WEATHER SERVICE PORTLAND OR
1200 AM PST TUE MAR 03 2015

NOTE: "FAIR" INDICATES FEW OR NO CLOUDS BELOW 12,000 FEET WITH
NO SIGNIFICANT WEATHER AND/OR OBSTRUCTIONS TO VISIBILITY.

ORZ001>013-030900-
NORTHWEST OREGON


CITY           SKY/WX    TMP DP  RH WIND       PRES   REMARKS
ASTORIA        CLEAR     36  34  92 SE3       30.15R
NEWPORT        CLEAR     36  36 100 E6        30.16S WCI  31
PORTLAND       CLEAR     42  33  70 N3        30.13R
VANCOUVER WA   CLEAR     39  31  72 CALM      30.13R
SCAPPOOSE      CLEAR     44  29  55 VRB5      30.12R
HILLSBORO      CLEAR     37  31  78 W5        30.12R WCI  33
AURORA         CLEAR     39  31  72 CALM      30.14R
MCMINNVILLE    CLEAR     40  33  76 NW3       30.13R
SALEM          CLEAR     36  33  89 CALM      30.12R
CORVALLIS      CLEAR     37  36  93 CALM      30.13S
EUGENE         CLEAR     38  35  89 NW7       30.13R WCI  33
$$

ORZ021-028-030900-
SOUTHWEST OREGON


CITY           SKY/WX    TMP DP  RH WIND       PRES   REMARKS
NORTH BEND     CLOUDY    39  39 100 SE3       30.14S
BROOKINGS      CLEAR     49  34  56 NW7       30.05R
ROSEBURG       MOCLDY    45  39  79 CALM      30.11R
SEXTON SUMMIT  FOG       32  32 100 N10       30.01R VSB 1/4 WCI  24
MEDFORD        CLOUDY    44  36  73 CALM      30.08R
$$

ORZ014>016-041-030900-
COLUMBIA GORGE


CITY           SKY/WX    TMP DP  RH WIND       PRES   REMARKS
TROUTDALE      CLEAR     38  31  76 E5        30.13R WCI  34
THE DALLES     CLOUDY    43  34  70 E3        30.13R
$$

ORZ029>031-041-044-049-050-061>064-502-503-505>511-030900-
EASTERN OREGON


CITY           SKY/WX    TMP DP  RH WIND       PRES   REMARKS
REDMOND        CLOUDY    30  22  72 CALM      30.03R
BEND           MOCLDY    30  23  74 CALM      30.03R
PRINEVILLE     CLOUDY    34  25  69 N5        30.03R WCI  30
KLAMATH FALLS  CLEAR     32  21  64 NE7       29.98R WCI  26
LAKEVIEW       CLEAR     28  18  64 N15       29.96S WCI  17
HERMISTON      PTCLDY    40  15  36 N8        30.10R WCI  34
PENDLETON      CLEAR     35  16  45 NW16G25   30.05R WCI  25
JOHN DAY       CLOUDY    32  21  65 N3        29.99R
MEACHAM        MOCLDY    25  17  72 CALM      29.97R
LA GRANDE      CLEAR     32  18  55 NW13      29.97R WCI  22
BAKER CITY     CLEAR     25  20  81 NW9       29.95R WCI  15
BURNS          CLEAR     24  17  74 W8        29.96R WCI  15
ROME             N/A     33  20  58 NW20      29.89R WCI  21
ONTARIO        CLOUDY    38  24  57 NW21      29.93R WCI  28
$$



USA.gov is the U.S. government's official web portal to all federal, state and local government web resources and services.